Fairbanks Eiels, AK

3:57 PM AKST on December 15, 2017 (GMT -0900)
Eielson Air Force Base

Weather History for PAEI - April, 2013

Change the Weather History Date:

Monday, April 22, 2013

  Actual Average Record
Temperature  
Mean Temperature 28 °F -  
Max Temperature 45 °F 45 °F 63 °F (1993)
Min Temperature 11 °F 25 °F 0 °F (1966)
Degree Days  
Heating Degree Days 38    
Moisture  
Dew Point 12 °F    
Average Humidity 49    
Maximum Humidity 78    
Minimum Humidity 25    
Precipitation  
Precipitation 0.00 in - - ()
Sea Level Pressure  
Sea Level Pressure 30.45 in    
Wind  
Wind Speed 3 mph (NNW)    
Max Wind Speed 7 mph    
Max Gust Speed -    
Visibility 10 miles    
Events      
Averages and records for this station are not official NWS values.
T = Trace of Precipitation, MM = Missing Value Source: NWS Daily Summary

Daily Weather History Graph

Daily Weather History Graph

Search for Another Location

Airport or City:

Trip Planner

Search our weather history database for the weather conditions in past years. The results will help you decide how hot, cold, wet, or windy it might be!

Date:

Astronomy

Apr. 22, 2013 Rise Set
Actual Time 5:47 AM AKDT 9:48 PM AKDT
Civil Twilight 4:44 AM AKDT 10:51 PM AKDT
Nautical Twilight 2:52 AM AKDT 12:52 AM AKDT
Astronomical Twilight Sun does not rise Sun does not rise
Moon 5:47 PM AKDT (4/22) 4:59 AM AKDT (4/22)
Length of Visible Light 18h 06m
Length of Day
16h 01m
Waxing Gibbous, 89% of the Moon is Illuminated
Apr 22
Waxing Gibbous
Apr 25
Full
May 2
Last Quarter
May 9
New
May 17
First Quarter

Hourly Weather History & Observations

Time (AKDT) Temp. Windchill Dew Point Humidity Pressure Visibility Wind Dir Wind Speed Gust Speed Precip Events Conditions
12:55 AM 23.4 °F 16.2 °F 10.4 °F 58% 30.40 in 10.0 mi Variable 5.8 mph - N/A   Clear
1:55 AM 20.7 °F 15.8 °F 9.7 °F 63% 30.41 in 10.0 mi Variable 3.5 mph - N/A   Clear
2:55 AM 18.3 °F - 9.5 °F 68% 30.43 in 10.0 mi Calm Calm - N/A   Clear
3:55 AM 16.0 °F - 9.7 °F 76% 30.43 in 10.0 mi Calm Calm - N/A   Clear
4:55 AM 12.2 °F - 5.7 °F 75% 30.45 in 10.0 mi Calm Calm - N/A   Clear
5:55 AM 12.4 °F - 6.1 °F 76% 30.46 in 10.0 mi Calm Calm - N/A   Clear
6:55 AM 11.7 °F - 6.1 °F 78% 30.47 in 10.0 mi Calm Calm - N/A   Clear
7:55 AM 18.7 °F - 9.1 °F 66% 30.48 in 10.0 mi Calm Calm - N/A   Clear
8:55 AM 21.4 °F - 11.7 °F 66% 30.48 in 10.0 mi Calm Calm - N/A   Clear
9:55 AM 28.8 °F - 14.7 °F 56% 30.49 in 10.0 mi Calm Calm - N/A   Clear
10:55 AM 36.1 °F - 12.7 °F 38% 30.49 in 10.0 mi Calm Calm - N/A   Clear
11:55 AM 38.8 °F - 13.8 °F 36% 30.49 in 10.0 mi Calm Calm - N/A   Clear
12:55 PM 42.4 °F 38.8 °F 12.4 °F 29% 30.49 in 10.0 mi Variable 5.8 mph - N/A   Clear
1:55 PM 43.5 °F 41.9 °F 12.7 °F 29% 30.49 in 10.0 mi Variable 3.5 mph - N/A   Clear
2:55 PM 44.4 °F 40.5 °F 10.6 °F 25% 30.48 in 10.0 mi Variable 6.9 mph - N/A   Clear
3:55 PM 43.2 °F 39.0 °F 12.0 °F 28% 30.47 in 10.0 mi NNW 6.9 mph - N/A   Clear
4:55 PM 43.9 °F 40.5 °F 11.5 °F 27% 30.45 in 10.0 mi Variable 5.8 mph - N/A   Clear
5:55 PM 42.4 °F 39.6 °F 14.9 °F 33% 30.44 in 10.0 mi Variable 4.6 mph - N/A   Clear
6:55 PM 42.1 °F 37.7 °F 18.1 °F 38% 30.43 in 10.0 mi Variable 6.9 mph - N/A   Clear
7:55 PM 42.1 °F 38.4 °F 14.2 °F 32% 30.41 in 10.0 mi North 5.8 mph - N/A   Clear
8:55 PM 40.3 °F - 13.1 °F 33% 30.41 in 10.0 mi Calm Calm - N/A   Clear
9:55 PM 32.4 °F - 16.5 °F 52% 30.41 in 10.0 mi Calm Calm - N/A   Clear
10:55 PM 31.6 °F 26.0 °F 13.5 °F 47% 30.41 in 10.0 mi SSE 5.8 mph - N/A   Clear
11:55 PM 29.3 °F - 13.8 °F 53% 30.42 in 10.0 mi Calm Calm - N/A   Clear